Overview Statistics Trail Chart Weather Telemetry Raw packets
 

This is the latest recevied weather packets stored in our database for station/object K6CED. If no packets are shown the sender has not sent any weather packets the latest 10 day(s).

<< 67 68 69 70 71 72 73 >>
Time Temp. Humidity Pressure Rain* Wind** Luminosity Snow
1788194103 24.44° C 61% 1016.6 hPa 0 mm - 532 W/m² -
1788193802 24.44° C 63% 1016.5 hPa 0 mm - 522 W/m² -
1788193497 23.89° C 66% 1016.6 hPa 0 mm - 511 W/m² -
1788193195 23.89° C 71% 1016.4 hPa 0 mm - 498 W/m² -
1788192892 24.44° C 71% 1016.6 hPa 0 mm - 481 W/m² -
1788192588 23.33° C 75% 1016.5 hPa 0 mm - 463 W/m² -
1788192288 22.78° C 78% 1016.9 hPa 0 mm - 446 W/m² -
1788191987 22.78° C 78% 1016.7 hPa 0 mm - 428 W/m² -
1788191682 22.78° C 79% 1016.6 hPa 0 mm - 160 W/m² -
1788191378 22.78° C 78% 1016.6 hPa 0 mm - 388 W/m² -
1788191074 22.78° C 79% 1016.6 hPa 0 mm - 370 W/m² -
1788190773 22.22° C 80% 1016.7 hPa 0 mm - 352 W/m² -
1788190468 22.22° C 80% 1016.9 hPa 0 mm - 327 W/m² -
1788190165 21.67° C 82% 1016.9 hPa 0 mm - 310 W/m² -
1788189860 22.22° C 81% 1016.6 hPa 0 mm - 287 W/m² -
1788189555 21.67° C 84% 1016.5 hPa 0 mm - 247 W/m² -
1788189254 21.11° C 84% 1016.6 hPa 0 mm - 258 W/m² -
1788188950 21.11° C 84% 1016.6 hPa 0 mm - 266 W/m² -
1788188645 21.67° C 83% 1016.6 hPa 0 mm - 246 W/m² -
1788188344 21.67° C 82% 1016.4 hPa 0 mm - 224 W/m² -
1788188041 21.67° C 84% 1016.6 hPa 0 mm - 191 W/m² -
1788187736 21.11° C 85% 1016.4 hPa 0 mm - 163 W/m² -
1788187432 20.56° C 87% 1016.4 hPa 0 mm - 147 W/m² -
1788187127 20.56° C 88% 1016.3 hPa 0 mm - 118 W/m² -
1788186822 20° C 90% 1016.3 hPa 0 mm - 97 W/m² -

* Rain latest hour (hover to see other rain measurements)
** Current wind speed in m/s (hover to see current wind gust speed)